Temperature
24 25 26 26 26 27 27 27 26 26 26 26 25 24 23 21 21 20 19 19 18 17 15 14 14 14 14 14 15 15 15 15 15 15 14 14 14 14 14 15 15 15 15 15
24 25 26 26 26 26 26 26 26 25 25 25 25 24 23 21 21 21 20 19 18 16 15 14 14 14 14 14 15 15 15 14 14 14 14 14 14 14 14 14 14 15 15 15
25 25 25 25 25 25 26 26 26 25 25 25 24 23 22 21 21 20 19 19 18 16 15 14 14 14 13 14 14 14 14 14 14 14 14 14 14 14 14 14 14 14 14 14
25 25 24 25 25 25 25 26 26 25 25 25 25 24 23 22 21 20 19 18 17 16 15 14 14 13 13 13 13 13 14 14 14 14 14 13 13 13 13 13 13 13 13 13
24 25 25 25 25 26 26 26 26 25 25 25 25 25 24 23 21 21 19 18 17 15 14 14 13 13 12 12 12 13 13 13 13 13 13 13 12 12 12 12 12 12 13 13
25 25 25 25 25 25 25 25 25 25 26 24 25 25 24 24 23 22 20 18 16 15 14 13 13 12 12 12 12 12 12 12 12 12 12 12 12 12 12 12 12 12 12 12
24 25 25 25 25 25 25 25 24 24 24 24 25 24 24 23 22 22 20 17 15 14 13 13 12 12 12 12 11 11 12 12 12 12 12 11 11 11 11 11 11 11 11 11
24 24 25 25 25 25 25 25 24 23 24 24 23 24 23 21 20 20 18 17 15 14 13 12 12 11 11 11 11 11 11 11 11 11 11 10 10 10 10 10 10 10 10 10
24 24 24 24 25 25 25 25 26 25 24 24 24 23 22 20 20 19 17 16 14 13 12 12 11 11 11 10 10 10 10 10 10 10 10 10 10 10 10 10 10 10 10 10
24 23 24 24 24 24 25 25 24 24 23 23 23 23 23 20 19 19 17 15 14 13 12 12 11 11 10 10 10 10 10 10 10 10 9 9 10 10 10 9 10 9 9 10
23 23 23 24 24 24 24 24 24 25 24 23 23 22 22 21 20 19 17 15 13 12 12 11 11 10 10 10 9 9 9 9 9 9 9 9 9 9 9 9 9 9 9 9
23 23 23 23 23 23 24 24 24 23 23 23 23 21 20 20 19 18 16 14 13 12 11 11 10 10 10 9 9 9 9 9 9 9 9 8 8 8 8 9 8 8 8 9
22 22 22 22 22 23 23 23 23 23 23 23 22 21 19 19 18 16 15 13 12 11 11 10 10 10 9 9 9 9 9 8 8 8 8 8 8 8 8 8 8 8 8 8
21 22 22 22 22 22 22 23 23 23 23 22 22 21 19 18 17 16 14 13 12 11 11 10 10 9 9 9 9 8 8 8 8 8 8 8 8 8 8 8 8 8 8 8
21 21 22 22 22 22 22 22 22 22 22 22 21 21 19 18 17 15 14 12 11 10 10 10 9 9 9 8 8 8 8 8 8 8 8 7 7 7 7 7 7 7 7 8
21 21 21 21 21 22 21 21 21 21 21 21 20 19 18 16 15 14 13 12 11 11 10 10 9 9 8 8 8 8 8 8 8 8 8 7 7 7 7 7 7 7 7 7
21 20 20 21 21 21 20 20 20 20 20 20 20 18 17 16 15 14 13 12 11 10 10 9 9 9 8 8 8 8 8 8 7 7 7 7 7 7 7 7 7 7 7 7
20 20 20 21 20 19 19 20 20 19 19 19 18 17 16 15 13 13 12 12 11 10 10 9 9 8 8 8 8 8 8 8 7 7 7 7 7 7 7 7 7 7 7 7
20 20 20 20 20 19 19 19 19 19 18 18 18 16 15 14 13 12 11 11 10 10 9 9 9 8 8 8 8 8 7 7 7 7 7 7 7 7 6 7 7 6 6 7
20 20 20 20 19 19 19 19 18 19 18 17 17 16 15 14 16 14 11 10 10 9 9 9 8 8 8 8 8 8 7 7 7 7 7 7 6 6 6 6 6 6 6 6
20 19 20 20 19 19 19 18 18 18 17 16 16 15 15 15 15 12 10 10 9 9 9 8 8 8 8 8 8 7 7 7 7 7 6 6 6 6 6 6 6 6 6 6
20 20 19 19 19 18 18 18 18 17 16 15 15 14 13 12 11 10 10 9 9 9 8 8 8 8 8 7 7 7 7 7 7 6 6 6 6 6 6 6 6 6 6 6
19 19 19 19 18 17 16 16 15 15 15 15 14 13 12 11 10 10 9 9 9 8 8 8 8 8 7 7 7 7 7 7 7 6 6 6 6 6 6 6 6 6 6 7
18 18 18 18 18 17 16 15 15 15 14 14 13 12 12 11 10 10 9 9 9 8 8 8 8 8 7 7 7 7 7 7 7 6 6 6 6 6 6 6 7 7 7 7
18 18 18 18 17 17 16 15 15 14 14 13 13 12 12 11 10 10 9 9 9 8 8 8 8 7 7 7 7 7 7 7 7 6 6 7 7 7 6 7 7 7 7 7
18 18 18 18 17 17 16 15 14 14 13 13 12 12 11 11 10 10 9 9 9 8 8 8 8 7 7 7 7 7 7 7 7 7 7 7 7 7 7 7 7 7 7 7
Wind_Speed
7 9 10 8 6 3 7 8 9 6 6 7 8 9 9 9 10 10 10 10 9 8 8 8 8 8 8 7 7 7 6 5 4 3 3 3 3 4 4 5 6 5 5 5
9 8 5 6 6 6 8 9 8 7 5 5 8 8 8 9 11 11 11 10 9 9 9 8 8 7 7 7 7 6 6 5 4 3 2 2 3 4 4 5 6 6 6 4
7 5 6 8 9 9 9 9 8 8 8 6 8 8 9 9 9 9 9 9 10 10 10 9 8 7 7 7 6 6 6 5 5 4 3 3 4 3 3 3 4 6 5 4
5 5 7 9 9 9 8 6 6 9 9 8 9 8 11 12 11 11 11 10 10 10 10 9 8 7 7 6 6 6 6 6 5 4 4 3 3 4 3 3 4 3 5 6
6 7 8 9 7 8 4 5 7 8 8 6 9 8 7 12 12 13 13 11 11 11 11 10 9 8 7 7 6 6 7 7 6 6 6 5 5 4 4 3 4 3 4 5
4 5 5 4 4 5 6 7 6 8 9 10 8 9 6 8 9 11 13 13 12 12 11 11 10 9 8 7 7 7 7 8 7 7 8 7 7 6 5 4 3 3 3 4
7 8 6 5 7 8 9 9 7 9 9 7 5 7 2 3 2 6 11 13 13 13 12 11 10 9 8 7 7 7 8 8 8 8 8 7 6 5 5 4 4 4 4 5
8 9 7 6 7 7 11 12 8 7 8 5 6 6 3 4 2 5 9 13 14 13 12 11 10 9 8 8 7 8 8 8 8 7 7 6 5 4 5 5 4 5 4 5
5 5 6 4 4 6 9 10 6 7 7 7 5 4 4 5 6 7 11 13 14 13 12 12 11 10 9 8 7 7 8 8 7 7 7 6 6 6 5 5 5 5 5 4
2 4 5 5 6 4 5 5 6 8 7 7 7 7 4 7 7 8 11 12 13 13 12 12 11 9 8 8 7 7 8 8 7 7 6 6 6 6 6 6 6 6 5 5
3 5 5 6 6 5 6 6 7 8 7 7 6 2 3 2 5 8 10 12 13 13 13 11 10 10 9 8 7 7 7 7 6 7 6 6 6 6 6 6 6 6 5 5
2 3 4 4 1 1 4 5 6 7 6 7 6 2 5 2 5 7 9 11 13 13 12 12 11 10 9 8 7 7 7 6 6 6 6 6 6 6 6 7 6 6 6 6
2 4 5 6 6 5 4 4 5 5 5 6 7 2 5 6 7 8 10 11 12 12 12 11 10 9 8 8 7 7 6 6 5 6 6 6 6 6 7 7 6 6 6 7
2 4 6 5 2 3 4 4 4 7 7 6 4 2 5 5 6 7 9 11 11 12 11 11 9 9 8 7 7 6 6 6 6 6 6 6 6 6 6 6 7 7 7 7
2 3 3 1 1 2 1 2 2 3 5 5 2 0 3 4 5 7 9 10 11 11 11 11 9 8 9 8 7 6 6 5 5 5 6 6 6 6 6 6 6 7 7 7
1 3 4 4 3 3 1 1 1 1 2 2 1 1 4 5 6 7 9 10 10 11 11 11 10 9 9 8 7 6 6 5 4 5 6 6 6 6 6 5 6 7 7 7
3 4 5 4 4 4 2 2 2 1 2 2 2 2 6 5 6 7 8 9 10 10 11 11 10 9 8 8 7 6 6 5 5 6 6 6 6 6 5 5 6 6 7 7
2 4 3 4 5 5 1 2 1 2 3 3 4 5 5 6 6 5 6 8 9 10 10 10 10 9 8 8 7 6 6 5 6 6 6 6 6 6 5 6 6 6 6 6
1 3 3 4 5 3 3 1 1 2 1 3 4 6 7 8 7 6 5 7 8 9 9 9 9 10 9 8 7 7 6 6 6 6 6 5 5 5 5 6 6 5 6 6
2 3 3 3 4 2 2 2 1 3 2 3 4 6 7 7 4 5 7 8 9 9 9 10 10 10 9 8 7 7 7 7 6 6 5 5 5 5 5 5 5 5 5 5
4 3 3 3 3 1 4 2 2 3 2 3 4 5 5 2 3 9 9 9 10 10 10 10 10 9 9 8 8 8 7 7 6 6 6 5 5 5 5 4 4 4 4 5
1 2 2 3 3 2 4 1 1 4 4 5 5 6 5 7 10 11 10 10 11 11 11 10 10 9 8 7 8 8 8 7 6 6 7 6 5 4 4 4 4 4 4 5
0 2 1 2 3 5 4 4 4 3 4 5 6 7 7 9 10 11 10 10 11 11 11 10 10 10 8 7 7 8 8 7 7 7 6 6 5 4 4 3 3 3 3 3
3 1 1 2 4 5 4 4 4 4 5 6 7 8 8 9 11 11 10 10 10 11 10 10 10 9 8 8 7 8 8 7 7 7 6 5 5 5 4 2 3 3 3 4
2 3 2 3 4 5 4 4 5 5 7 8 8 9 9 11 11 11 10 10 10 10 9 9 9 9 9 9 8 8 8 8 8 7 6 5 5 5 4 4 3 3 4 4
2 2 2 1 4 2 5 5 6 7 8 9 9 9 9 10 11 11 10 9 10 10 9 9 9 9 9 9 9 8 7 7 7 6 6 5 4 4 3 4 4 4 3 2
Wind_Direction
186 203 195 183 210 195 182 182 171 150 158 191 181 168 164 172 183 177 175 171 160 138 122 115 107 101 94 87 86 84 78 78 85 101 113 112 97 91 84 74 62 50 41 33
190 196 168 167 177 190 191 187 168 149 146 191 172 171 172 184 194 190 184 176 164 147 132 120 111 102 95 88 83 84 83 78 74 82 88 95 93 81 74 66 60 48 43 24
197 134 158 181 182 194 199 203 182 161 151 169 177 187 186 188 195 191 188 178 169 159 145 132 114 99 96 87 79 76 73 73 68 70 92 110 108 103 83 63 54 39 33 26
191 155 183 195 194 204 198 195 187 178 195 190 206 219 185 184 191 195 189 180 168 151 144 135 120 107 96 89 83 78 73 67 62 62 72 91 92 92 76 62 56 44 32 21
176 178 193 201 196 213 192 167 194 206 224 222 214 243 175 178 198 200 193 181 164 153 146 137 126 114 101 91 85 78 74 69 65 64 65 67 75 79 79 73 66 47 43 30
177 184 211 204 186 195 163 167 182 216 226 230 219 242 206 187 206 195 186 177 163 154 144 134 124 114 102 93 88 83 78 71 68 68 69 67 72 72 70 63 56 51 50 41
189 187 186 196 186 181 198 205 209 215 222 228 184 236 211 122 173 186 174 168 161 153 144 137 129 116 103 93 85 79 77 71 68 72 73 74 76 78 69 58 56 43 41 37
197 188 182 196 218 207 211 229 242 248 241 218 183 226 126 100 116 154 156 155 154 149 145 140 130 121 112 105 97 89 84 77 72 74 77 74 73 72 68 57 53 50 40 36
211 179 151 177 218 231 213 231 264 269 263 251 217 187 142 135 133 140 147 150 154 151 146 138 129 122 115 108 98 94 91 85 77 73 74 73 69 66 67 65 55 54 45 40
239 205 175 173 195 211 252 224 225 243 248 246 222 217 190 164 163 161 161 159 154 148 141 134 129 123 116 110 104 96 91 86 82 79 72 73 70 68 66 60 55 48 45 42
238 223 190 190 216 205 194 212 236 249 264 264 245 173 56 150 172 171 165 159 153 147 143 139 133 126 121 118 112 102 93 88 81 76 73 70 68 67 65 58 53 47 43 41
226 242 215 195 149 247 232 237 239 247 245 259 275 113 58 89 138 148 148 148 147 146 143 138 133 130 128 121 110 102 96 90 85 83 79 72 70 68 66 61 54 50 48 48
202 219 212 193 186 189 210 227 247 261 259 256 261 146 91 102 115 129 136 139 142 143 141 138 136 135 131 124 117 111 106 100 95 90 85 78 74 71 66 63 57 54 54 55
251 238 249 244 199 182 204 215 233 252 256 258 266 158 125 120 124 134 142 145 146 146 145 144 142 139 132 125 119 114 109 105 99 93 86 81 73 69 67 65 62 58 59 59
242 217 207 197 148 187 210 237 242 258 286 282 287 129 109 131 142 143 145 147 148 151 150 148 146 144 138 132 126 118 111 109 106 99 90 85 81 74 69 66 64 64 63 62
204 197 181 181 169 166 144 324 285 287 307 287 196 99 89 106 127 141 150 155 157 157 154 150 148 149 146 140 136 131 122 115 111 98 92 88 84 81 76 71 69 70 68 62
189 197 205 200 190 211 228 343 331 2 342 300 297 106 120 128 139 153 158 161 161 156 153 153 153 152 147 143 140 136 126 118 110 101 97 92 87 83 81 78 74 74 72 69
193 213 222 207 211 228 102 62 59 81 42 43 85 116 130 128 128 133 147 152 150 149 152 153 151 147 144 139 137 130 124 120 115 108 102 97 94 92 87 83 77 75 75 70
235 233 228 226 218 189 153 134 294 274 94 66 115 127 128 126 126 118 124 134 138 145 145 145 146 146 142 137 136 134 133 128 122 112 105 101 98 97 92 86 79 76 78 75
160 228 234 229 236 225 101 65 310 249 174 117 135 144 149 169 187 143 134 129 128 130 134 139 143 141 138 138 143 141 134 131 123 115 109 105 103 99 94 87 85 83 86 88
187 198 222 230 225 120 55 39 227 244 84 125 136 140 157 163 68 122 133 133 133 133 134 137 140 139 140 146 148 138 131 127 126 124 116 108 103 104 99 91 91 96 95 93
242 206 207 231 223 120 56 98 16 52 90 117 122 127 120 101 109 124 131 134 136 134 133 136 137 135 139 146 144 133 127 127 128 122 114 109 107 102 98 95 92 97 107 112
346 7 24 21 60 79 75 63 65 87 110 116 126 127 125 125 130 132 134 135 137 137 138 139 139 135 136 142 143 133 131 135 132 126 120 115 110 97 96 97 102 112 126 122
137 99 133 120 109 104 98 95 94 98 108 120 126 131 131 133 136 136 136 137 140 141 143 145 142 139 138 141 139 134 136 140 139 133 129 128 122 113 110 109 99 101 104 106
129 167 168 145 131 128 113 106 112 111 114 120 125 132 135 138 142 141 139 141 142 143 145 147 146 145 144 142 140 141 142 145 142 138 136 136 128 119 117 102 64 57 64 45
164 192 216 140 141 140 126 129 131 129 129 131 134 135 137 142 143 142 142 143 144 144 147 149 148 147 145 143 142 145 149 151 149 147 149 148 141 134 141 135 127 73 38 64
Height
1511 1506 1503 1502 1501 1499 1501 1502 1507 1509 1511 1511 1514 1519 1525 1531 1533 1535 1538 1541 1545 1547 1550 1551 1552 1552 1553 1554 1554 1555 1555 1555 1556 1557 1559 1560 1560 1561 1561 1561 1561 1562 1563 1563
1508 1503 1503 1504 1505 1504 1503 1505 1508 1511 1512 1512 1515 1520 1525 1529 1531 1533 1537 1540 1544 1547 1549 1551 1552 1553 1553 1554 1555 1555 1555 1556 1556 1557 1558 1558 1558 1559 1560 1560 1560 1561 1561 1561
1501 1502 1505 1506 1507 1506 1504 1504 1505 1509 1512 1514 1517 1523 1525 1528 1531 1534 1536 1539 1542 1546 1548 1550 1552 1553 1554 1554 1555 1555 1556 1556 1556 1557 1558 1558 1558 1558 1559 1559 1559 1559 1559 1559
1500 1503 1506 1505 1504 1503 1505 1501 1504 1508 1510 1510 1513 1517 1518 1522 1528 1531 1535 1538 1541 1545 1547 1550 1551 1553 1554 1554 1555 1555 1555 1556 1556 1556 1557 1557 1557 1557 1558 1558 1558 1558 1558 1557
1501 1502 1503 1503 1501 1501 1500 1502 1504 1505 1505 1509 1510 1512 1511 1516 1522 1526 1531 1536 1540 1543 1546 1549 1551 1552 1554 1554 1555 1555 1555 1555 1555 1555 1556 1556 1556 1556 1557 1557 1557 1557 1557 1556
1499 1502 1501 1500 1501 1503 1503 1505 1506 1504 1502 1514 1507 1511 1511 1510 1514 1519 1527 1534 1538 1542 1545 1548 1550 1552 1553 1555 1555 1555 1555 1555 1555 1555 1556 1555 1555 1555 1556 1556 1556 1557 1556 1555
1501 1499 1500 1502 1502 1504 1503 1506 1513 1514 1513 1510 1504 1510 1510 1510 1514 1518 1524 1531 1537 1541 1544 1547 1549 1551 1553 1554 1554 1555 1555 1555 1555 1556 1556 1556 1556 1556 1556 1556 1556 1556 1555 1555
1501 1502 1498 1499 1499 1499 1500 1500 1509 1517 1513 1505 1508 1509 1509 1514 1518 1520 1524 1530 1536 1540 1544 1547 1549 1551 1552 1554 1555 1555 1556 1556 1556 1556 1556 1556 1557 1557 1557 1556 1556 1556 1555 1554
1497 1498 1497 1499 1499 1497 1499 1497 1493 1501 1501 1506 1504 1506 1513 1517 1519 1522 1526 1531 1535 1540 1543 1546 1549 1551 1553 1554 1555 1556 1556 1556 1556 1557 1557 1557 1557 1557 1557 1556 1556 1556 1555 1554
1495 1501 1496 1498 1499 1499 1495 1494 1499 1502 1512 1513 1507 1505 1507 1514 1518 1522 1527 1531 1536 1540 1543 1546 1549 1551 1553 1554 1555 1556 1556 1557 1557 1558 1558 1558 1558 1558 1557 1557 1556 1556 1555 1554
1497 1501 1499 1497 1498 1496 1499 1500 1497 1494 1496 1506 1511 1511 1508 1512 1516 1521 1526 1531 1535 1539 1543 1546 1549 1551 1553 1554 1555 1556 1556 1557 1558 1558 1558 1558 1558 1558 1558 1557 1557 1556 1555 1555
1499 1497 1499 1498 1498 1498 1496 1496 1497 1503 1504 1500 1503 1516 1513 1514 1517 1521 1526 1532 1536 1540 1543 1546 1549 1551 1553 1555 1556 1556 1557 1558 1559 1559 1559 1559 1559 1559 1558 1557 1557 1557 1556 1555
1500 1502 1506 1505 1504 1500 1498 1498 1497 1497 1499 1502 1506 1516 1515 1517 1520 1524 1528 1533 1537 1540 1543 1546 1549 1552 1554 1555 1556 1557 1558 1559 1559 1560 1560 1560 1560 1559 1559 1558 1558 1557 1557 1556
1503 1500 1503 1506 1501 1497 1500 1498 1497 1497 1500 1502 1503 1509 1515 1518 1522 1526 1530 1534 1537 1540 1543 1546 1549 1552 1554 1555 1556 1558 1559 1560 1560 1561 1561 1560 1560 1560 1560 1559 1559 1558 1558 1557
1502 1501 1500 1498 1498 1498 1499 1499 1499 1500 1500 1501 1504 1507 1514 1519 1523 1527 1531 1534 1538 1541 1543 1546 1549 1552 1553 1555 1557 1558 1559 1560 1561 1561 1561 1561 1561 1561 1561 1561 1560 1560 1559 1559
1502 1502 1501 1503 1500 1500 1502 1502 1502 1503 1503 1504 1506 1513 1517 1522 1525 1528 1531 1534 1537 1540 1543 1546 1549 1551 1553 1555 1557 1558 1559 1560 1562 1562 1562 1562 1562 1562 1562 1562 1561 1561 1561 1560
1500 1503 1504 1505 1501 1502 1510 1508 1506 1506 1506 1507 1509 1515 1520 1523 1526 1529 1532 1534 1537 1540 1543 1546 1549 1551 1553 1554 1557 1559 1560 1561 1562 1563 1563 1563 1563 1563 1563 1563 1563 1563 1562 1562
1503 1503 1502 1502 1507 1516 1513 1507 1508 1509 1511 1511 1514 1518 1521 1525 1528 1531 1533 1535 1538 1540 1543 1546 1549 1551 1553 1555 1557 1558 1560 1561 1563 1563 1564 1564 1565 1565 1565 1565 1564 1564 1564 1563
1504 1503 1502 1503 1506 1510 1510 1509 1509 1510 1513 1515 1516 1520 1523 1526 1529 1532 1534 1536 1538 1540 1543 1546 1548 1551 1553 1555 1557 1559 1561 1562 1563 1564 1564 1565 1566 1566 1566 1566 1566 1566 1565 1565
1504 1503 1502 1504 1508 1512 1511 1509 1511 1512 1514 1518 1519 1521 1524 1526 1524 1530 1534 1536 1538 1541 1543 1546 1548 1551 1553 1556 1558 1560 1561 1563 1564 1565 1565 1566 1567 1567 1567 1567 1567 1567 1567 1567
1503 1503 1503 1504 1507 1508 1510 1511 1512 1515 1517 1519 1520 1522 1524 1525 1526 1531 1534 1537 1539 1542 1544 1546 1549 1552 1554 1556 1558 1560 1562 1563 1565 1565 1566 1567 1568 1568 1568 1568 1568 1568 1568 1568
1502 1503 1505 1504 1507 1514 1513 1512 1513 1517 1518 1519 1521 1524 1526 1527 1529 1532 1535 1537 1540 1542 1545 1547 1550 1553 1555 1557 1559 1561 1562 1564 1565 1566 1567 1568 1569 1569 1570 1570 1570 1570 1570 1570
1503 1505 1503 1506 1511 1515 1515 1516 1518 1519 1520 1521 1523 1525 1527 1529 1531 1534 1536 1539 1541 1544 1546 1549 1551 1553 1555 1558 1560 1562 1563 1564 1566 1567 1568 1569 1570 1570 1571 1571 1571 1572 1572 1572
1507 1509 1507 1509 1512 1515 1517 1518 1519 1520 1521 1523 1524 1526 1528 1530 1533 1535 1538 1540 1542 1545 1547 1550 1552 1554 1556 1558 1561 1562 1564 1565 1567 1568 1569 1571 1571 1572 1572 1572 1573 1574 1574 1574
1506 1508 1507 1509 1513 1515 1518 1519 1520 1521 1522 1524 1526 1528 1529 1531 1534 1536 1538 1541 1543 1546 1548 1550 1553 1555 1557 1559 1561 1563 1565 1566 1568 1569 1570 1572 1573 1573 1574 1574 1574 1575 1575 1575
1507 1508 1507 1508 1513 1514 1518 1520 1521 1522 1524 1525 1527 1529 1531 1533 1535 1537 1540 1542 1544 1547 1549 1551 1554 1556 1558 1560 1562 1564 1565 1567 1569 1570 1571 1573 1574 1574 1575 1575 1576 1575 1575 1576